星链-5772 (STARLINK-5772 )

导读

STARLINK-5772是美国SpaceX星链(Starlink)星座的组网卫星,于2023年3月24日发射入轨。星链项目旨在构建全球卫星互联网,该卫星为服务拓展提供支撑,已推动星链覆盖超155个国家,向航空、航海、手机直连等场景渗透,截至2026年初用户规模预计突破千万,在全球卫星互联网部署中承担组网功能。

Basic Information
目录编号:
56024
目录名称:
STARLINK-5772
国际标识:
2023-042AQ
轨道中心:
EARTH
卫星名称:
星链-5772
卫星全名:
星链-5772 (STARLINK-5772 )
卫星状态:
在轨 (已飞行1260 天)
发射日期:
2023-03-24 UTC
国别 :
美国 (US)
星等 :
--
Orbit Information
数据来源 国际轨道数据 AOE轨道数据
星历时间 2026-09-03T09:17:23+0800
1天前
查看轨道信息
2026-08-31T22:00:00+0800
3天前
查看轨道信息
半长轴 6861.174km 6861.201km
偏心率 0.0001424 0.0000018
轨道倾角 43.005° 43.004°
近地点辐角 274.538° 348.210°
升交点赤经 123.341° 137.294°
平近点角 85.530° 90.506°
近地点 482.059km 483.051km
远地点 484.015km 483.077km
周期 94.266分钟 94.267分钟
每日圈数 15.275843 15.275752
Detailed Information
固有亮度:
5
最大亮度:
2.5
卫星平台:
Starlink v1.5
覆盖范围:
全球
运营商:
太空探索技术公司
运营商所在国:
美国
制造商(研发单位):
太空探索技术公司
制造商所在国:
美国
使用方式:
暂无
Satellite Introduction
星链(Starlink)计划是由太空探索技术公司(SpaceX)提出的一个巨型低轨卫星互联网星座项目,计划在2019年至2024年间在太空搭建由约1.2万颗卫星组成的“星链”网络,其中1584颗将部署在地球上空550千米处的近地轨道,并从2020年开始工作。该卫星仍在工作。
2D Orbit Map
3D Orbit Map
Orbit Altitude Analysis Chart
Orbit Inclination Analysis Chart
Orbit Comprehensive Analysis Chart
View Comprehensive Chart